Regional Weather Roundup
Issued by NWS Grand Forks, ND

Home | Current Version | Previous Version | Text Only | Print | Product List | Glossary On
Versions: 1 2 3 4 5 6 7 8 9 10 11 12 13 14 15 16 17 18 19 20 21 22 23 24 25 26 27 28 29 30 31 32 33 34 35 36 37 38 39 40 41 42 43 44 45 46 47 48 49 50
085
ASUS43 KFGF 250431
RWRFGF
PRAIRIE TO PINES  WEATHER ROUNDUP
NATIONAL WEATHER SERVICE EASTERN NORTH DAKOTA/GRAND FORKS ND
1100 PM CDT MON APR 24 2017

 **SATELLITE DATA USED TO AUGMENT SKY COVER AT AUTOMATED STATIONS**
 *****  WEATHER ACROSS EASTERN NORTH DAKOTA  *****

CITY           SKY/WX    TMP DP  RH WIND       PRES   REMARKS
GRAND FORKS    CLOUDY    34  33  96 N18       29.68S WCI  23
GRAND FRKS AFB CLOUDY    32  32 100 N17G23    29.69S WCI  21
DEVILS LAKE    CLOUDY    30  28  93 NE20      29.75R WCI  18
FARGO          CLOUDY    37  35  92 N21G26    29.61S
WAHPETON ARPT  CLOUDY    37  34  87 NW13G18   29.60S
$$

 ***** WEATHER ACROSS CENTRAL AND WESTERN NORTH DAKOTA  *****

CITY           SKY/WX    TMP DP  RH WIND       PRES   REMARKS
BISMARCK       CLOUDY    35  30  82 N16       29.74S
MINOT          CLOUDY    32  28  85 N16       29.79R WCI  21
JAMESTOWN      CLOUDY    33  31  92 N16G24    29.68R WCI  23
MINOT AFB      CLOUDY    32  27  80 NE18      29.79R WCI  20
GARRISON         N/A     31  26  82 NE10      29.77R WCI  22
WILLISTON      CLOUDY    31  26  82 NE14      29.82R WCI  21
DICKINSON      CLOUDY    29  27  92 NE12      29.72R WCI  19
HETTINGER      CLOUDY    33  30  88 NE15      29.70S WCI  23
$$

 *****  OTHER AIRPORT OBSERVATIONS IN OUR AREA  *****

CITY           SKY/WX    TMP DP  RH WIND       PRES   REMARKS
WALHALLA       NOT AVBL
GRAFTON AIRPOR CLOUDY    32  30  93 N17G24    29.74S WCI  21
VALLEY CITY AR CLOUDY    32  32 100 N18       29.68R WCI  20
CANDO          NOT AVBL
CAVALIER APRT  CLOUDY    32  27  80 N14G24    29.76R WCI  22
GWINNER        CLOUDY    36  34  93 MISG      29.63F
SHEYENNE NWR     N/A     35  33  92 N10       29.95S
ROLLA          CLOUDY    28  28 100 NE20      29.80R WCI  15
 ***** THE ABOVE OBSERVATIONS ARE NON NWS ARE NOT QUALITY
       CONTROLLED AND MAY MIS-REPORT RAIN FOR SNOW...
$$

  *****  WEATHER ACROSS NORTHERN MINNESOTA  *****

CITY           SKY/WX    TMP DP  RH WIND       PRES   REMARKS
FLAG ISLAND    FLURRIES  30  28  93 NE13G20   29.71S WCI  20
WARROAD        LGT SNOW  32  28  86 N15G23    29.69S WCI  22
ROSEAU         LGT SNOW  32  27  80 NE14      29.69S WCI  22
HALLOCK        CLOUDY    32  28  86 N14       29.73R WCI  22
THF RVR FALLS  MIX PCPN  33  32  96 N17       29.64S FOG     WCI  22
BAUDETTE       CLOUDY    34  32  92 NE12      29.65S
WASKISH        CLOUDY    37  37 100 NE6       29.61S
CROOKSTON      CLOUDY    34  34 100 N14       29.65F WCI  24
STEPHEN NDAWN    N/A     32  30  93 N14         N/A  WCI  22
GREENBUSH NDAW   N/A     30  30 100 N13         N/A  WCI  20
$$
  *****  WEATHER ACROSS CENTRAL AND WEST MINNESOTA  *****

CITY           SKY/WX    TMP DP  RH WIND       PRES   REMARKS
FOSSTON        DRIZZLE   37  36  93 N13       29.59S
BEMIDJI        DRIZZLE   40  39  95 E6        29.57S
PARK RAPIDS    CLOUDY    48  44  86 E8        29.53S
ELBOW LAKE     CLOUDY    40  40 100 W17       29.56S
WADENA         CLOUDY    48  46  93 CALM      29.52S
DETROIT LAKES  CLOUDY    43  41  93 NW13      29.57S FOG
MOORHEAD       CLOUDY    36  34  93 N20       29.61S
FERGUS FALLS   CLOUDY    39  39 100 N17       29.56F FOG
MORRIS MN      NOT AVBL
STAPLES        LGT RAIN  48  45  87 CALM      29.52F
$$
  *****  WEATHER ELSEWHERE ACROSS MINNESOTA  *****

CITY           SKY/WX    TMP DP  RH WIND       PRES   REMARKS
DULUTH         CLOUDY    37  33  85 E16G28    29.62F
INTRNTL FALLS  LGT RAIN  35  33  92 SE15      29.63F
ELY            MOCLDY    36  34  93 NE5       29.65R
CLOQUET        CLOUDY    36  32  87 E10G16    29.62R
WHEATON        CLOUDY    39  36  87 NW16G22   29.62R
BRAINERD       LGT RAIN  47  42  83 NE6       29.55S
HIBBING        CLOUDY    36  34  92 E6        29.62F
ALEXANDRIA     CLOUDY    48  47  96 NW13      29.53S
SAINT CLOUD    CLOUDY    58  40  51 SE5       29.53S
MINNEAPOLIS    CLOUDY    66  31  27 S6        29.55S
$$

  *****  WEATHER ACROSS SOUTH DAKOTA  *****

CITY           SKY/WX    TMP DP  RH WIND       PRES   REMARKS
SIOUX FALLS    FAIR      49  41  74 NW15      29.56R
BROOKINGS      FAIR      43  38  82 N14       29.57R
WATERTOWN      CLOUDY    39  36  89 N15       29.59S
HURON          CLOUDY    42  36  79 N13       29.63R
SISSETON         N/A     37  36  96 N22       29.60R
ABERDEEN       CLOUDY    36  31  82 N17       29.66S
MITCHELL       FAIR      46  38  73 N14       29.62R
PIERRE         MOCLDY    37  33  85 N10       29.65S
MOBRIDGE       CLOUDY    38  30  73 N14       29.67S
RAPID CITY     CLOUDY    44  37  76 NE17      29.62R
$$

  *****  SOME WEATHER IN NEARBY STATES *****

CITY           SKY/WX    TMP DP  RH WIND       PRES   REMARKS
GLASGOW MT     CLOUDY    32  25  75 E16       29.79R WCI  21
GREAT FALLS MT CLOUDY    44  37  76 N9        29.67R
CHEYENNE WY    MOCLDY    40  38  93 E3        29.60S
SCOTTSBLUFF NE LGT RAIN  51  46  83 SE5       29.58F
OMAHA NE       FAIR      62  44  51 S9        29.52F
DES MOINES IA  CLOUDY    64  35  34 S8        29.59F
DAVENPORT IA   FAIR      61  30  31 SE10      29.69R
CHICAGO IL     FAIR      53  36  52 NE3       29.76F
EAU CLAIRE WI  CLOUDY    63  30  28 SE3       29.62F
LA CROSSE WI   FAIR      66  32  28 S7        29.63S
$$

  *****  SOME NATIONAL WEATHER *****

CITY           SKY/WX    TMP DP  RH WIND       PRES   REMARKS
LA GUARDIA NY  CLOUDY    51  46  83 NE10      30.13S
RALEIGH NC     RAIN      60  59  96 NE12      29.67S FOG
ATLANTA GA     MOCLDY    60  57  89 E5        29.75R
NEW ORLEANS LA FAIR      64  53  67 SW6       29.81S
OKLAHOMA CITY  MOCLDY    63  49  60 S16G25    29.55F
ALBUQUERQUE NM MOCLDY    70  17  13 W21G29    29.73R
SALT LAKE CITY MOCLDY    46  42  86 SW3       29.73F
LOS ANGELES CA FAIR      58  53  84 SW5       29.87S
BOISE ID       LGT RAIN  48  40  73 N5        29.74R
SEATTLE WA     MOCLDY    50  45  83 SW9       29.87R
$$

*** WEATHER ACROSS MANITOBA...SASKATCHEWAN AND ONTARIO ***
                ***ONTARIO***

CITY           SKY/WX    TMP DP  RH WIND       PRES   REMARKS
GERALDTON      CLOUDY    30  25  80 E15G23    29.98F WCI  19
THUNDER BAY    CLOUDY    37  30  75 E22       29.82S
SIOUX LOOKOUT  LGT SNOW  28  25  86 NE6G17    29.78F WCI  22
TORONTO        PTCLDY    46  32  57 E12G18    30.07S
BIG TROUT LK   MOCLDY    18   3  53 E9G17     30.21F WCI   6
PICKLE LAKE    NOT AVBL
DRYDEN         LGT SNOW  28  28 100 NE16G24   29.73S WCI  17
KENORA         LGT SNOW  28  27  93 NE13G24   29.73F DRFTSNOWWCI  18
$$
                *** MANITOBA***

CITY           SKY/WX    TMP DP  RH WIND       PRES   REMARKS
BRANDON        CLOUDY    30  27  86 NE13      29.87R WCI  20
DAUPHIN        CLOUDY    32  19  59 NE17      29.94S WCI  21
ISLAND LAKE    PTCLDY    19   3  49 NE9G17    30.15S WCI   9
PILOT MOUND      N/A     28  25  86 NE16G23     N/A  WCI  17
THE PAS        CLEAR     27   3  36 E6        30.11R WCI  20
THOMPSON       PTCLDY    14  -2  48 E7        30.25R WCI   4
WINNIPEG       FLURRIES  30  27  86 NE18      29.83R WCI  18
LYNN LAKE      CLEAR     14   1  57 E5        30.20R WCI   6
CHURCHILL      CLOUDY     3  -2  78 CALM      30.43S
GILLAM         CLEAR      1  -6  71 E6        30.35S WCI -10
$$
                ***SASKATCHEWAN***

CITY           SKY/WX    TMP DP  RH WIND       PRES   REMARKS
ESTEVAN        FLURRIES  28  27  93 NE16      29.86R WCI  17
KINDERSLEY     CLOUDY    30  25  80 SE16      29.85R WCI  19
LLOYDMINSTER   LGT SNOW  30  30 100 E13       29.89R WCI  20
PRINCE ALBERT  MOCLDY    28  19  69 E9        30.00R WCI  20
REGINA         MOCLDY    28  21  74 E15       29.91R WCI  17
YORKTON        CLOUDY    28  21  74 NE9       29.95S WCI  20
N. BATTLEFORD  CLOUDY    30  30 100 SE12      29.95R WCI  21
LA RONGE       MOCLDY    30  16  55 E5        30.06R
SASKATOON      CLOUDY    30  23  74 SE7       29.97R WCI  23
SWIFT CURRENT  CLOUDY    28  25  86 E18       29.82R WCI  16
$$
NOTE: THESE ARE AUTOMATED STATIONS WITH LIMITED QUALITY CONTROL
      "FAIR" INDICATES FEW OR NO CLOUDS BELOW 12,000 FEET WITH NO
      SIGNIFICANT WEATHER AND/OR OBSTRUCTIONS TO VISIBILITY.
      SKY/WX - SKY CONDITION AND SIGNIFICANT WEATHER.
      TMP - AIR TEMPERATURE.    DP   - DEWPOINT TEMPERATURE.
      RH  - RELATIVE HUMIDITY.  PRES - PRESSURE.
      HX  - HEAT INDEX.         WCI  - WIND CHILL INDEX.
$




USA.gov is the U.S. government's official web portal to all federal, state and local government web resources and services.